Zurück zum Katalog

DELTA 1 DEB

AktivSSO
NORAD 12225·DEBRIS·🇺🇸 United States

Gestartet Mar 5, 1978 von Vandenberg Space Force Base

Loading…

Nächste Überflüge (nächste 24 Stunden)

TLE

AktuellSource: Space-Track

Epoche: Sep 14, 2026, 06:56 UTC

1 12225U 78026BS  26257.28945801  .00000423  00000-0  26765-3 0  9992
2 12225  99.1406 187.0453 0037679  39.0681 112.7103 14.09258395332807

Verfolge DELTA 1 DEB in Echtzeit mit AllMySat

Download on the App Store